Stündliche Wetter Abiego

Heute, 23 Juni, Mittwoch

Zeit Temperatur Niederschläge Wind Luftdruck Luftfeuchtigkeit
00:00 +14°C° 0 mm 3 m/S 706 mmHg 70%
01:00 +15°C° 0 mm 2 m/S 706 mmHg 70%
02:00 +14°C° 0 mm 2 m/S 705 mmHg 71%
03:00 +14°C° 0 mm 2 m/S 705 mmHg 72%
04:00 +14°C° 0.1 mm 2 m/S 706 mmHg 72%
05:00 +14°C° 0.1 mm 2 m/S 706 mmHg 73%
06:00 +15°C° 0.1 mm 2 m/S 706 mmHg 74%
07:00 +16°C° 0.1 mm 2 m/S 707 mmHg 70%
08:00 +17°C° 0.1 mm 2 m/S 707 mmHg 66%
09:00 +18°C° 0.1 mm 2 m/S 707 mmHg 62%
10:00 +18°C° 0.3 mm 2 m/S 707 mmHg 59%
11:00 +19°C° 0.3 mm 2 m/S 707 mmHg 56%
12:00 +20°C° 0.3 mm 2 m/S 708 mmHg 53%
13:00 +20°C° 0.5 mm 2 m/S 707 mmHg 51%
14:00 +21°C° 0.5 mm 3 m/S 707 mmHg 48%
15:00 +21°C° 0.5 mm 3 m/S 707 mmHg 46%
16:00 +21°C° 0.3 mm 3 m/S 707 mmHg 47%
17:00 +20°C° 0.3 mm 4 m/S 707 mmHg 47%
18:00 +20°C° 0.3 mm 4 m/S 707 mmHg 48%
19:00 +18°C° 0.1 mm 4 m/S 708 mmHg 54%
20:00 +17°C° 0.1 mm 3 m/S 708 mmHg 60%
21:00 +14°C° 0.1 mm 3 m/S 708 mmHg 66%
22:00 +14°C° 0.1 mm 3 m/S 708 mmHg 69%
23:00 +14°C° 0.1 mm 2 m/S 708 mmHg 72%

Morgen, 24 Juni, Donnerstag

Zeit Temperatur Niederschläge Wind Luftdruck Luftfeuchtigkeit
00:00 +13°C° 0.1 mm 2 m/S 708 mmHg 76%
01:00 +13°C° 0 mm 2 m/S 708 mmHg 77%
02:00 +13°C° 0 mm 2 m/S 708 mmHg 79%
03:00 +12°C° 0 mm 2 m/S 708 mmHg 80%
04:00 +13°C° 0 mm 1 m/S 708 mmHg 78%
05:00 +13°C° 0 mm 1 m/S 708 mmHg 76%
06:00 +14°C° 0 mm 1 m/S 709 mmHg 74%
07:00 +16°C° 0 mm 1 m/S 709 mmHg 66%
08:00 +19°C° 0 mm 1 m/S 709 mmHg 58%
09:00 +21°C° 0 mm 1 m/S 710 mmHg 50%
10:00 +22°C° 0 mm 1 m/S 710 mmHg 45%
11:00 +24°C° 0 mm 2 m/S 710 mmHg 40%
12:00 +25°C° 0 mm 2 m/S 710 mmHg 36%
13:00 +25°C° 0 mm 3 m/S 710 mmHg 34%
14:00 +26°C° 0 mm 3 m/S 709 mmHg 33%
15:00 +27°C° 0 mm 3 m/S 709 mmHg 31%
16:00 +26°C° 0 mm 3 m/S 709 mmHg 33%
17:00 +26°C° 0 mm 3 m/S 709 mmHg 35%
18:00 +25°C° 0 mm 3 m/S 709 mmHg 38%
19:00 +22°C° 0 mm 3 m/S 709 mmHg 44%
20:00 +20°C° 0 mm 2 m/S 709 mmHg 51%
21:00 +19°C° 0 mm 2 m/S 710 mmHg 57%
22:00 +18°C° 0 mm 2 m/S 710 mmHg 60%
23:00 +17°C° 0 mm 2 m/S 709 mmHg 63%

übermorgen, 25 Juni, Freitag

Zeit Temperatur Niederschläge Wind Luftdruck Luftfeuchtigkeit
00:00 +16°C° 0 mm 1 m/S 709 mmHg 65%
01:00 +16°C° 0 mm 1 m/S 709 mmHg 67%
02:00 +15°C° 0 mm 1 m/S 709 mmHg 69%
03:00 +15°C° 0 mm 1 m/S 709 mmHg 71%
04:00 +15°C° 0 mm 1 m/S 710 mmHg 69%
05:00 +16°C° 0 mm 1 m/S 710 mmHg 67%
06:00 +15°C° 0 mm 0 m/S 710 mmHg 65%
07:00 +19°C° 0 mm 1 m/S 710 mmHg 59%
08:00 +21°C° 0 mm 1 m/S 710 mmHg 53%
09:00 +23°C° 0 mm 1 m/S 710 mmHg 47%
10:00 +24°C° 0 mm 2 m/S 710 mmHg 42%
11:00 +26°C° 0 mm 2 m/S 710 mmHg 37%
12:00 +27°C° 0 mm 3 m/S 710 mmHg 33%
13:00 +28°C° 0 mm 3 m/S 709 mmHg 30%
14:00 +29°C° 0 mm 3 m/S 709 mmHg 27%
15:00 +30°C° 0 mm 3 m/S 709 mmHg 25%
16:00 +30°C° 0 mm 2 m/S 708 mmHg 25%
17:00 +29°C° 0 mm 2 m/S 708 mmHg 25%
18:00 +29°C° 0 mm 1 m/S 707 mmHg 26%
19:00 +27°C° 0 mm 1 m/S 707 mmHg 34%
20:00 +24°C° 0 mm 1 m/S 707 mmHg 43%
21:00 +22°C° 0 mm 1 m/S 708 mmHg 51%
22:00 +20°C° 0 mm 2 m/S 708 mmHg 55%
23:00 +20°C° 0 mm 2 m/S 708 mmHg 59%

26 Juni, Samstag

Zeit Temperatur Niederschläge Wind Luftdruck Luftfeuchtigkeit
00:00 +19°C° 0 mm 2 m/S 708 mmHg 63%
01:00 +19°C° 0 mm 2 m/S 707 mmHg 64%
02:00 +18°C° 0 mm 2 m/S 707 mmHg 65%
03:00 +18°C° 0 mm 2 m/S 707 mmHg 66%
04:00 +18°C° 0 mm 2 m/S 707 mmHg 64%
05:00 +20°C° 0 mm 1 m/S 707 mmHg 62%
06:00 +21°C° 0 mm 1 m/S 707 mmHg 61%
07:00 +21°C° 0 mm 2 m/S 707 mmHg 54%
08:00 +24°C° 0 mm 2 m/S 707 mmHg 48%
09:00 +26°C° 0 mm 3 m/S 707 mmHg 42%
10:00 +28°C° 0 mm 3 m/S 707 mmHg 39%
11:00 +29°C° 0 mm 3 m/S 707 mmHg 36%
12:00 +31°C° 0 mm 3 m/S 707 mmHg 34%
13:00 +32°C° 0 mm 4 m/S 707 mmHg 32%
14:00 +33°C° 0 mm 4 m/S 706 mmHg 31%
15:00 +33°C° 0 mm 5 m/S 705 mmHg 30%
16:00 +29°C° 1.5 mm 6 m/S 705 mmHg 43%
17:00 +24°C° 1.5 mm 6 m/S 706 mmHg 57%
18:00 +21°C° 1.5 mm 7 m/S 706 mmHg 70%
19:00 +20°C° 0.5 mm 5 m/S 706 mmHg 72%
20:00 +19°C° 0.5 mm 4 m/S 705 mmHg 73%
21:00 +19°C° 0.5 mm 3 m/S 705 mmHg 74%
22:00 +19°C° 0.1 mm 2 m/S 705 mmHg 74%
23:00 +18°C° 0.1 mm 2 m/S 705 mmHg 75%

27 Juni, Sonntag

Zeit Temperatur Niederschläge Wind Luftdruck Luftfeuchtigkeit
00:00 +19°C° 0.1 mm 1 m/S 705 mmHg 75%
01:00 +19°C° 0.1 mm 1 m/S 705 mmHg 75%
02:00 +19°C° 0.1 mm 1 m/S 704 mmHg 76%
03:00 +19°C° 0.1 mm 1 m/S 704 mmHg 76%
04:00 +19°C° 0 mm 1 m/S 704 mmHg 75%
05:00 +19°C° 0 mm 1 m/S 704 mmHg 74%
06:00 +20°C° 0 mm 1 m/S 704 mmHg 73%
07:00 +21°C° 0 mm 1 m/S 704 mmHg 67%
08:00 +23°C° 0 mm 2 m/S 705 mmHg 61%
09:00 +24°C° 0 mm 2 m/S 705 mmHg 55%
10:00 +25°C° 0.3 mm 3 m/S 705 mmHg 54%
11:00 +26°C° 0.3 mm 3 m/S 705 mmHg 52%
12:00 +26°C° 0.3 mm 3 m/S 705 mmHg 50%
13:00 +27°C° 0.2 mm 4 m/S 705 mmHg 47%
14:00 +27°C° 0.2 mm 5 m/S 705 mmHg 44%
15:00 +27°C° 0.2 mm 6 m/S 705 mmHg 40%
16:00 +26°C° 0 mm 6 m/S 705 mmHg 40%
17:00 +25°C° 0 mm 5 m/S 705 mmHg 39%
18:00 +23°C° 0 mm 5 m/S 705 mmHg 38%
19:00 +21°C° 0 mm 4 m/S 705 mmHg 42%
20:00 +19°C° 0 mm 3 m/S 705 mmHg 46%
21:00 +17°C° 0 mm 3 m/S 706 mmHg 50%
22:00 +16°C° 0 mm 3 m/S 706 mmHg 51%
23:00 +14°C° 0 mm 3 m/S 706 mmHg 51%

28 Juni, Montag

Zeit Temperatur Niederschläge Wind Luftdruck Luftfeuchtigkeit
00:00 +14°C° 0 mm 3 m/S 706 mmHg 51%
01:00 +13°C° 0 mm 3 m/S 706 mmHg 52%
02:00 +13°C° 0 mm 3 m/S 706 mmHg 53%
03:00 +12°C° 0 mm 3 m/S 706 mmHg 54%
04:00 +13°C° 0 mm 3 m/S 707 mmHg 54%
05:00 +13°C° 0 mm 3 m/S 707 mmHg 55%
06:00 +14°C° 0 mm 3 m/S 707 mmHg 56%
07:00 +17°C° 0 mm 3 m/S 707 mmHg 51%
08:00 +19°C° 0 mm 3 m/S 708 mmHg 46%
09:00 +21°C° 0 mm 3 m/S 708 mmHg 42%
10:00 +22°C° 0 mm 4 m/S 708 mmHg 39%
11:00 +25°C° 0 mm 4 m/S 708 mmHg 35%
12:00 +26°C° 0 mm 4 m/S 708 mmHg 32%
13:00 +27°C° 0 mm 5 m/S 708 mmHg 31%
14:00 +27°C° 0 mm 6 m/S 708 mmHg 30%
15:00 +27°C° 0 mm 6 m/S 708 mmHg 29%
16:00 +26°C° 0 mm 6 m/S 708 mmHg 32%
17:00 +25°C° 0 mm 5 m/S 708 mmHg 35%
18:00 +25°C° 0 mm 5 m/S 708 mmHg 38%
19:00 +22°C° 0 mm 4 m/S 708 mmHg 44%
20:00 +20°C° 0 mm 3 m/S 708 mmHg 51%
21:00 +18°C° 0 mm 3 m/S 708 mmHg 58%
22:00 +17°C° 0 mm 2 m/S 708 mmHg 61%
23:00 +16°C° 0 mm 2 m/S 708 mmHg 63%
Mehr zeigen

Wir brauchen deine Erlaubnis

Meteoprog und unser Service Anbieter werden persönliche Daten aufbewahren, so wie Cookies, Geräte Bezeichnung oder ähnliche Technologien von deinem Gerät und Prozess, so wie Persönliche Daten Inhalte und Werbungen, genauso wie social Media und den Verkehr zu analysieren.

  • Aufbewahrung und/oder Zugang zu deiner Geräte Informationen.

    Cookies, Geräte Bezeichnung oder andere Informationen, können aufbewahrt oder Zugang zu deinem Gerät erhalten, für den Grund, der oben angegeben wird.

  • Personalisierte Werbung und Inhalte, Messungen, Einblick in das Publikum und Produkt Entwicklung.

    Werbungen und Inhalte können personalisiert werden, basierend auf ein Profil. Mehr Daten können besser personalisierte Werbungen und Inhalte hinzufügen. Werbung und Inhalte können gezeigt und gemessen werden. Einblicke über das Publikum, welche die Werbung gesehen haben und den Inhalt, können abgeleitet werden. So wie Daten können genutzt werden, um es zu verbessern oder die Benutzer Erfahrung zu verbessern das System und die Software.

Wenn du “Ich stimme zu” klickst, erlaubst du uns, die Cookies zu benutzen die Geräte Bezeichnung, den Web oder ähnliche Technologien zu benutzen. Deine Settings, können in deinem Gerät bei deinem Browser geändert werden.

Für den bestimmten Zweck, berechtigten Interessen beruhen darauf, mehr als auf den Inhalt. Du kannst mehr darüber in unseren Privaten und Cookie Politik lesen.